Погода в Инчоуне

Россия / Чукотский автономный округ     66°17′49″N   170°16′44″W
темп.,
°C
ветер,
м/с
пор.,
м/с
влажн.,
%
обл.,
%
осадки,
мм/ч
давл.,
гПа
погр.,
м
7 марта, вс
вс700:00−27ююз44820 0.0 99926
03:00−28ююз34850 0.0 100121
06:00−30ю34960 0.0 100224
09:00−25ю349233 0.0 100392
12:00−22ю339367 0.0 1003141
15:00−21юз129467 0.0 100357
18:00−21в119983 0.1 100520
21:00−20зюз1199100 0.1 100520
8 марта, пн
пн800:00−15ююз0197100 0.3 100332
03:00−6ююв61594100 0.6 1000455
06:00−2ююв122090100 0.9 997717
09:00−2ююв152392100 1.3 995843
12:000ююв162395100 5.8 9921087
15:00+1ююв162396100 3.1 991892
18:00+1ююв121997100 7.1 990729
21:00−2ю3597100 1.8 991132
9 марта, вт
вт900:00−3ю2397100 2.8 98960
03:00−6ссз6996100 2.6 988321
06:00−8зсз51293100 5.5 988531
09:00−7з3978100 0.4 990527
12:00−9зюз478099 0.4 994221
15:00−13ю457833 0.0 99832
18:00−16ю448717 0.0 100121
21:00−17ю129728 0.2 100421
10 марта, ср
ср1000:00−14сз229664 1.5 100487
03:00−18ссз4596100 1.6 1006142
06:00−25с2310067 1.6 100920
09:00−23ссв239567 0.0 101196
12:00−23с569883 0.3 1012230
15:00−24с5696100 0.2 1013342
18:00−26с5895100 0.3 1014226
21:00−33ссз339567 0.0 101720
11 марта, чт
чт1100:00−34зсз118933 0.0 101919
03:00−34юз12800 0.0 102119
06:00−33юз22740 0.0 102319
09:00−31ююз23730 0.0 102335
12:00−29ю33830 0.0 1024127
15:00−30ю33880 0.0 102426
18:00−31ююз33780 0.0 102519
21:00−30ююз33680 0.0 102519